Delhi, Ontario

9:39 AM EDT on April 23, 2017 (GMT -0400)
Delhi

Weather History for CXDI - October, 2013

Change the Weather History Date:

Saturday, October 19, 2013

  Actual Average Record
Temperature  
Mean Temperature 44 °F -  
Max Temperature 48 °F - - ()
Min Temperature 41 °F - - ()
Degree Days  
Heating Degree Days 20    
Moisture  
Dew Point 41 °F    
Average Humidity 85    
Maximum Humidity 92    
Minimum Humidity 78    
Precipitation  
Precipitation 0.16 in - - ()
Sea Level Pressure  
Sea Level Pressure 29.78 in    
Wind  
Wind Speed 3 mph ()    
Max Wind Speed 10 mph    
Max Gust Speed -    
T = Trace of Precipitation, MM = Missing Value Source: Averaged Metar Reports

Daily Weather History Graph

Daily Weather History Graph

Search for Another Location

Airport or City:

Trip Planner

Search our weather history database for the weather conditions in past years. The results will help you decide how hot, cold, wet, or windy it might be!

Date:

Astronomy

Oct. 19, 2013 Rise Set
Actual Time 7:40 AM EDT 6:32 PM EDT
Civil Twilight 7:11 AM EDT 7:01 PM EDT
Nautical Twilight 6:38 AM EDT 7:34 PM EDT
Astronomical Twilight 6:06 AM EDT 8:07 PM EDT
Moon 6:57 PM EDT (10/19) 8:18 AM EDT (10/19)
Length of Visible Light 11h 49m
Length of Day
10h 52m
Waxing Gibbous, 99% of the Moon is Illuminated
Oct 19
Waxing Gibbous
Oct 26
Last Quarter
Nov 3
New
Nov 10
First Quarter
Nov 17
Full

Hourly Weather History & Observations

Time (EDT) Temp. Windchill Dew Point Humidity Pressure Visibility Wind Dir Wind Speed Gust Speed Precip Events Conditions
12:00 AM 43.2 °F - 41.0 °F 92% 29.86 in - South 2.3 mph - N/A   Unknown
1:00 AM 46.8 °F - 40.5 °F 79% 29.85 in - WSW 3.5 mph - N/A   Unknown
2:00 AM 45 °F - 40 °F 78% 29.85 in - SSW 3.5 mph - -  
2:00 AM 45.0 °F 43.5 °F 40.3 °F 84% 29.85 in - SSW 3.5 mph - N/A   Unknown
3:00 AM 43.9 °F 42.3 °F 39.7 °F 85% 29.85 in - SSW 3.5 mph - N/A   Unknown
4:00 AM 45.0 °F - 40.6 °F 85% 29.83 in - SSW 2.3 mph - N/A   Unknown
5:00 AM 43.3 °F 41.7 °F 39.9 °F 88% 29.83 in - SSW 3.5 mph - N/A   Unknown
6:00 AM 45.5 °F - 40.3 °F 82% 29.83 in - South 2.3 mph - N/A   Unknown
7:00 AM 43.7 °F - 40.1 °F 87% 29.81 in - SSW 1.2 mph - N/A   Unknown
8:00 AM 44 °F - 40 °F 83% 29.80 in - WNW 2.3 mph - -  
8:00 AM 43.5 °F - 40.5 °F 89% 29.80 in - WNW 2.3 mph - N/A   Unknown
9:00 AM 45.1 °F - 41.5 °F 87% 29.81 in - West 1.2 mph - N/A   Unknown
10:00 AM 47.5 °F - 41.7 °F 80% 29.79 in - WNW 2.3 mph - N/A   Unknown
11:00 AM 48.0 °F - 41.7 °F 79% 29.77 in - WNW 5.8 mph - N/A   Unknown
12:00 PM 47.7 °F - 42.4 °F 82% 29.76 in - South 3.5 mph - N/A   Unknown
1:00 PM 47.8 °F - 43.7 °F 86% 29.74 in - SW 2.3 mph - 0.02 in   Unknown
2:00 PM 46 °F - 41 °F 78% 29.71 in - WNW 8.1 mph - -  
2:00 PM 45.9 °F 41.7 °F 41.4 °F 84% 29.71 in - WNW 8.1 mph - N/A   Unknown
3:00 PM 45.7 °F 43.4 °F 41.9 °F 87% 29.69 in - West 4.6 mph - N/A   Unknown
4:00 PM 45.1 °F 42.8 °F 41.9 °F 88% 29.68 in - West 4.6 mph - 0.03 in   Unknown
5:00 PM 42.6 °F 36.8 °F 39.7 °F 90% 29.69 in - WNW 10.4 mph - 0.09 in   Unknown
6:00 PM 42.8 °F 41.1 °F 40.3 °F 91% 29.70 in - West 3.5 mph - 0.02 in   Unknown
7:00 PM 42.8 °F 40.1 °F 40.3 °F 91% 29.72 in - West 4.6 mph - N/A   Unknown
8:00 PM 43 °F - 40 °F 85% 29.75 in - West 6.9 mph - -  
8:00 PM 43.2 °F 39.0 °F 40.1 °F 89% 29.75 in - West 6.9 mph - N/A   Unknown
9:00 PM 41.5 °F 39.6 °F 37.4 °F 85% 29.75 in - WSW 3.5 mph - N/A   Unknown
10:00 PM 41.2 °F 39.2 °F 38.7 °F 91% 29.77 in - WSW 3.5 mph - N/A   Unknown
11:00 PM 41.4 °F 38.4 °F 37.6 °F 86% 29.80 in - West 4.6 mph - N/A   Unknown